Weather History for Golden Triangle, MS

Change the Weather History Date:

Monday, July 22, 2013

  Actual Average Record
Temperature  
Mean Temperature 76 °F -  
Max Temperature 82 °F 89 °F 98 °F (2010)
Min Temperature 71 °F 68 °F 62 °F (2007)
Cooling Degree Days 12    
Growing Degree Days 26 (Base 50)    
Moisture  
Dew Point 72 °F    
Average Humidity 88    
Maximum Humidity 94    
Minimum Humidity 74    
Precipitation  
Precipitation 0.00 in - - ()
Sea Level Pressure  
Sea Level Pressure 29.97 in    
Wind  
Wind Speed 6 mph (SSW)    
Max Wind Speed 15 mph    
Max Gust Speed 22 mph    
Visibility 10 miles    
Events      
Averages and records for this station are not official NWS values.
T = Trace of Precipitation, MM = Missing Value Source: NWS Daily Summary

Daily Weather History Graph

Daily Weather History Graph

Search for Another Location

Airport:

Trip Planner

Search our weather history database for the weather conditions in past years. The results will help you decide how hot, cold, wet, or windy it might be!

Date:

Astronomy

Jul. 22, 2013 Rise Set
Actual Time 6:00 AM CDT 8:01 PM CDT
Civil Twilight 5:32 AM CDT 8:28 PM CDT
Nautical Twilight 4:58 AM CDT 9:02 PM CDT
Astronomical Twilight 4:22 AM CDT 9:38 PM CDT
Moon 7:52 PM CDT (7/22) 5:53 AM CDT (7/22)
Length of Visible Light 14h 56m
Length of Day
14h 00m
Full, 100% of the Moon is Illuminated
Jul 22
Full
Jul 22
Full
Jul 29
Last Quarter
Aug 6
New
Aug 14
First Quarter

Hourly Weather History & Observations

Time (CDT) Temp. Heat Index Dew Point Humidity Pressure Visibility Wind Dir Wind Speed Gust Speed Precip Events Conditions
12:15 AM 75.2 °F - 71.6 °F 89% 29.98 in 10.0 mi South 6.9 mph - N/A   Clear
12:35 AM 78.8 °F - 73.4 °F 83% 29.98 in 10.0 mi South 5.8 mph - N/A   Clear
12:55 AM 75.2 °F - 71.6 °F 89% 29.98 in 10.0 mi South 5.8 mph - N/A   Clear
1:15 AM 75.2 °F - 71.6 °F 89% 29.98 in 10.0 mi South 5.8 mph - N/A   Clear
1:35 AM 75.2 °F - 71.6 °F 89% 29.97 in 10.0 mi South 5.8 mph - N/A   Clear
1:55 AM 75.2 °F - 71.6 °F 89% 29.96 in 10.0 mi South 5.8 mph - N/A   Clear
2:15 AM 75.2 °F - 71.6 °F 89% 29.96 in 10.0 mi South 5.8 mph - N/A   Clear
2:35 AM 75.2 °F - 71.6 °F 89% 29.96 in 10.0 mi SSW 4.6 mph - N/A   Clear
2:55 AM 75.2 °F - 71.6 °F 89% 29.96 in 10.0 mi SSW 4.6 mph - N/A   Clear
3:15 AM 73.4 °F - 71.6 °F 94% 29.96 in 10.0 mi SSW 5.8 mph - N/A   Clear
3:35 AM 73.4 °F - 71.6 °F 94% 29.96 in 10.0 mi SSW 4.6 mph - N/A   Clear
3:55 AM 73.4 °F - 71.6 °F 94% 29.96 in 10.0 mi SSW 4.6 mph - N/A   Clear
4:15 AM 73.4 °F - 71.6 °F 94% 29.96 in 10.0 mi SSW 4.6 mph - N/A   Clear
4:35 AM 73.4 °F - 71.6 °F 94% 29.96 in 10.0 mi SSW 4.6 mph - N/A   Clear
4:55 AM 73.4 °F - 71.6 °F 94% 29.97 in 10.0 mi SW 5.8 mph - N/A   Clear
5:15 AM 75.2 °F - 71.6 °F 89% 29.97 in 10.0 mi SW 6.9 mph - N/A   Clear
5:35 AM 73.4 °F - 71.6 °F 94% 29.97 in 10.0 mi SW 5.8 mph - N/A   Clear
5:50 AM 73.4 °F - 71.6 °F 94% 29.97 in 10.0 mi SSW 6.9 mph - N/A   Clear
6:50 AM 75.2 °F - 71.6 °F 89% 29.97 in 10.0 mi SW 6.9 mph - N/A   Clear
7:50 AM 78.8 °F - 71.6 °F 78% 29.98 in 10.0 mi WSW 9.2 mph - N/A   Mostly Cloudy
8:50 AM 78.8 °F - 71.6 °F 78% 30.00 in 10.0 mi SW 11.5 mph - N/A   Overcast
9:45 AM 78.8 °F - 71.6 °F 78% 30.00 in 10.0 mi WSW 6.9 mph - N/A   Overcast
10:45 AM 80.6 °F 85.4 °F 73.4 °F 79% 30.00 in 10.0 mi WSW 8.1 mph - N/A   Overcast
11:45 AM 80.6 °F 85.4 °F 73.4 °F 79% 30.00 in 10.0 mi WNW 6.9 mph - N/A   Overcast
12:45 PM 82.4 °F 89.5 °F 75.2 °F 79% 30.01 in 10.0 mi NW 9.2 mph - N/A   Overcast
1:45 PM 71.6 °F - 69.8 °F 94% 30.02 in 7.0 mi North 15.0 mph 21.9 mph N/A   Mostly Cloudy
2:10 PM 71.6 °F - 69.8 °F 94% 30.00 in 10.0 mi NNE 10.4 mph - N/A   Mostly Cloudy
2:50 PM 71.6 °F - 69.8 °F 94% 29.98 in 10.0 mi Calm Calm - N/A   Mostly Cloudy
3:45 PM 75.2 °F - 71.6 °F 89% 29.94 in 10.0 mi SSW 5.8 mph - N/A   Scattered Clouds
4:45 PM 78.8 °F - 71.6 °F 78% 29.94 in 10.0 mi SW 5.8 mph - N/A   Clear
5:45 PM 80.6 °F 84.6 °F 71.6 °F 74% 29.94 in 10.0 mi WSW 3.5 mph - N/A   Scattered Clouds
6:45 PM 80.6 °F 85.4 °F 73.4 °F 79% 29.95 in 10.0 mi South 6.9 mph - N/A   Partly Cloudy
7:45 PM 78.8 °F - 71.6 °F 78% 29.95 in 10.0 mi South 6.9 mph - N/A   Partly Cloudy
8:15 PM 77.0 °F - 71.6 °F 83% 29.95 in 10.0 mi South 9.2 mph - N/A   Mostly Cloudy
8:35 PM 75.2 °F - 71.6 °F 89% 29.95 in 10.0 mi South 8.1 mph - N/A   Scattered Clouds
8:55 PM 75.2 °F - 71.6 °F 89% 29.96 in 10.0 mi South 8.1 mph - N/A   Clear
9:15 PM 75.2 °F - 71.6 °F 89% 29.96 in 10.0 mi South 8.1 mph - N/A   Clear
9:35 PM 75.2 °F - 71.6 °F 89% 29.96 in 10.0 mi South 6.9 mph - N/A   Partly Cloudy
9:55 PM 77.0 °F - 73.4 °F 89% 29.95 in 10.0 mi South 6.9 mph - N/A   Clear
10:15 PM 75.2 °F - 71.6 °F 89% 29.95 in 10.0 mi South 6.9 mph - N/A   Clear
10:35 PM 75.2 °F - 71.6 °F 89% 29.95 in 10.0 mi South 6.9 mph - N/A   Clear
10:55 PM 73.4 °F - 71.6 °F 94% 29.95 in 10.0 mi South 6.9 mph - N/A   Clear
11:15 PM 73.4 °F - 71.6 °F 94% 29.95 in 10.0 mi South 8.1 mph - N/A   Clear
11:35 PM 73.4 °F - 71.6 °F 94% 29.95 in 10.0 mi SSW 5.8 mph - N/A   Clear
11:55 PM 75.2 °F - 73.4 °F 94% 29.95 in 10.0 mi SSW 4.6 mph - N/A   Clear